User: anonymous   Login
Location: Santa Barbara
(34.4500°N, 119.7700°W)
Time: 13:18:01
(UTC-07:00)
Language:

Cosmos 1892 Rocket - Orbit

View from above orbital plane
View from above orbital plane
View from above satellite
View from above satellite

Ground track
Ground track

The orbit data is extracted from the following two-line orbital elements,

1 18422U 87088B   16147.16592141  .00000094  00000-0  86925-5 0  9994
2 18422  82.5111 179.5107 0018047 274.2510 121.5697 14.82863334544464
Epoch (UTC): 26 May 2016 03:58:55
Eccentricity: 0.0018047
inclination: 82.5111°
perigee height: 607 km
apogee height: 633 km
right ascension of ascending node: 179.5107°
argument of perigee: 274.2510°
revolutions per day: 14.82863334
mean anomaly at epoch: 121.5697°
orbit number at epoch: 54446

The dashed part of the orbit path shows where the satellite is in the earth's shadow,  

DLR